Year,Month,Day,Hour,Minute,Value (Times are PST for temperature in C)
2014,05,30,00,00,10.60
2014,05,30,00,01,10.60
2014,05,30,00,02,10.60
2014,05,30,00,03,10.60
2014,05,30,00,04,10.60
2014,05,30,00,05,10.60
2014,05,30,00,06,10.50
2014,05,30,00,07,10.50
2014,05,30,00,08,10.40
2014,05,30,00,09,10.40
2014,05,30,00,10,10.30
2014,05,30,00,11,10.30
2014,05,30,00,12,10.30
2014,05,30,00,13,10.30
2014,05,30,00,14,10.30
2014,05,30,00,15,10.30
2014,05,30,00,16,10.30
2014,05,30,00,17,10.30
2014,05,30,00,18,10.30
2014,05,30,00,19,10.30
2014,05,30,00,20,10.30
2014,05,30,00,21,10.30
2014,05,30,00,22,10.30
2014,05,30,00,23,10.30
2014,05,30,00,24,10.30
2014,05,30,00,25,10.30
2014,05,30,00,26,10.30
2014,05,30,00,27,10.30
2014,05,30,00,28,10.30
2014,05,30,00,29,10.20
2014,05,30,00,30,10.20
2014,05,30,00,31,10.10
2014,05,30,00,32,10.10
2014,05,30,00,33,10.00
2014,05,30,00,34,10.00
2014,05,30,00,35,10.00
2014,05,30,00,36,9.90
2014,05,30,00,37,9.90
2014,05,30,00,38,9.90
2014,05,30,00,39,9.90
2014,05,30,00,40,9.90
2014,05,30,00,41,9.90
2014,05,30,00,42,9.90
2014,05,30,00,43,9.90
2014,05,30,00,44,9.90
2014,05,30,00,45,9.90
2014,05,30,00,46,9.90
2014,05,30,00,47,9.90
2014,05,30,00,48,9.90
2014,05,30,00,49,9.80
2014,05,30,00,50,9.80
2014,05,30,00,51,9.80
2014,05,30,00,52,9.80
2014,05,30,00,53,9.80
2014,05,30,00,54,9.70
2014,05,30,00,55,9.70
2014,05,30,00,56,9.70
2014,05,30,00,57,9.70
2014,05,30,00,58,9.60
2014,05,30,00,59,9.60
2014,05,30,01,00,9.60
2014,05,30,01,01,9.60
2014,05,30,01,02,9.60
2014,05,30,01,03,9.60
2014,05,30,01,04,9.50
2014,05,30,01,05,9.50
2014,05,30,01,06,9.40
2014,05,30,01,07,9.40
2014,05,30,01,08,9.40
2014,05,30,01,09,9.30
2014,05,30,01,10,9.30
2014,05,30,01,11,9.30
2014,05,30,01,12,9.30
2014,05,30,01,13,9.30
2014,05,30,01,14,9.20
2014,05,30,01,15,9.20
2014,05,30,01,16,9.20
2014,05,30,01,17,9.20
2014,05,30,01,18,9.20
2014,05,30,01,19,9.20
2014,05,30,01,20,9.20
2014,05,30,01,21,9.20
2014,05,30,01,22,9.10
2014,05,30,01,23,9.10
2014,05,30,01,24,9.10
2014,05,30,01,25,9.10
2014,05,30,01,26,9.10
2014,05,30,01,27,9.10
2014,05,30,01,28,9.10
2014,05,30,01,29,9.10
2014,05,30,01,30,9.00
2014,05,30,01,31,9.00
2014,05,30,01,32,9.00
2014,05,30,01,33,9.00
2014,05,30,01,34,9.00
2014,05,30,01,35,9.00
2014,05,30,01,36,8.90
2014,05,30,01,37,9.00
2014,05,30,01,38,9.00
2014,05,30,01,39,8.90
2014,05,30,01,40,8.90
2014,05,30,01,41,8.90
2014,05,30,01,42,8.90
2014,05,30,01,43,8.90
2014,05,30,01,44,8.90
2014,05,30,01,45,8.90
2014,05,30,01,46,8.90
2014,05,30,01,47,8.80
2014,05,30,01,48,8.80
2014,05,30,01,49,8.80
2014,05,30,01,50,8.80
2014,05,30,01,51,8.80
2014,05,30,01,52,8.80
2014,05,30,01,53,8.80
2014,05,30,01,54,8.80
2014,05,30,01,55,8.70
2014,05,30,01,56,8.70
2014,05,30,01,57,8.70
2014,05,30,01,58,8.70
2014,05,30,01,59,8.70
2014,05,30,02,00,8.70
2014,05,30,02,01,8.70
2014,05,30,02,02,8.70
2014,05,30,02,03,8.60
2014,05,30,02,04,8.60
2014,05,30,02,05,8.60
2014,05,30,02,06,8.60
2014,05,30,02,07,8.60
2014,05,30,02,08,8.60
2014,05,30,02,09,8.50
2014,05,30,02,10,8.50
2014,05,30,02,11,8.50
2014,05,30,02,12,8.50
2014,05,30,02,13,8.50
2014,05,30,02,14,8.40
2014,05,30,02,15,8.50
2014,05,30,02,16,8.50
2014,05,30,02,17,8.50
2014,05,30,02,18,8.50
2014,05,30,02,19,8.50
2014,05,30,02,20,8.50
2014,05,30,02,21,8.50
2014,05,30,02,22,8.60
2014,05,30,02,23,8.60
2014,05,30,02,24,8.60
2014,05,30,02,25,8.60
2014,05,30,02,26,8.60
2014,05,30,02,27,8.60
2014,05,30,02,28,8.60
2014,05,30,02,29,8.60
2014,05,30,02,30,8.60
2014,05,30,02,31,8.60
2014,05,30,02,32,8.60
2014,05,30,02,33,8.60
2014,05,30,02,34,8.60
2014,05,30,02,35,8.60
2014,05,30,02,36,8.60
2014,05,30,02,37,8.60
2014,05,30,02,38,8.60
2014,05,30,02,39,8.60
2014,05,30,02,40,8.60
2014,05,30,02,41,8.60
2014,05,30,02,42,8.50
2014,05,30,02,43,8.50
2014,05,30,02,44,8.50
2014,05,30,02,45,8.50
2014,05,30,02,46,8.40
2014,05,30,02,47,8.40
2014,05,30,02,48,8.40
2014,05,30,02,49,8.40
2014,05,30,02,50,8.40
2014,05,30,02,51,8.40
2014,05,30,02,52,8.40
2014,05,30,02,53,8.40
2014,05,30,02,54,8.40
2014,05,30,02,55,8.40
2014,05,30,02,56,8.40
2014,05,30,02,57,8.40
2014,05,30,02,58,8.40
2014,05,30,02,59,8.40
2014,05,30,03,00,8.40
2014,05,30,03,01,8.40
2014,05,30,03,02,8.40
2014,05,30,03,03,8.40
2014,05,30,03,04,8.40
2014,05,30,03,05,8.40
2014,05,30,03,06,8.40
2014,05,30,03,07,8.40
2014,05,30,03,08,8.40
2014,05,30,03,09,8.40
2014,05,30,03,10,8.40
2014,05,30,03,11,8.40
2014,05,30,03,12,8.40
2014,05,30,03,13,8.30
2014,05,30,03,14,8.30
2014,05,30,03,15,8.30
2014,05,30,03,16,8.30
2014,05,30,03,17,8.30
2014,05,30,03,18,8.30
2014,05,30,03,19,8.20
2014,05,30,03,20,8.20
2014,05,30,03,21,8.20
2014,05,30,03,22,8.20
2014,05,30,03,23,8.20
2014,05,30,03,24,8.20
2014,05,30,03,25,8.20
2014,05,30,03,26,8.20
2014,05,30,03,27,8.20
2014,05,30,03,28,8.30
2014,05,30,03,29,8.30
2014,05,30,03,30,8.30
2014,05,30,03,31,8.30
2014,05,30,03,32,8.30
2014,05,30,03,33,8.30
2014,05,30,03,34,8.30
2014,05,30,03,35,8.30
2014,05,30,03,36,8.30
2014,05,30,03,37,8.30
2014,05,30,03,38,8.30
2014,05,30,03,39,8.30
2014,05,30,03,40,8.30
2014,05,30,03,41,8.40
2014,05,30,03,42,8.40
2014,05,30,03,43,8.40
2014,05,30,03,44,8.40
2014,05,30,03,45,8.40
2014,05,30,03,46,8.40
2014,05,30,03,47,8.40
2014,05,30,03,48,8.30
2014,05,30,03,49,8.30
2014,05,30,03,50,8.30
2014,05,30,03,51,8.30
2014,05,30,03,52,8.20
2014,05,30,03,53,8.30
2014,05,30,03,54,8.30
2014,05,30,03,55,8.30
2014,05,30,03,56,8.30
2014,05,30,03,57,8.20
2014,05,30,03,58,8.20
2014,05,30,03,59,8.20
2014,05,30,04,00,8.20
2014,05,30,04,01,8.20
2014,05,30,04,02,8.20
2014,05,30,04,03,8.20
2014,05,30,04,04,8.20
2014,05,30,04,05,8.20
2014,05,30,04,06,8.20
2014,05,30,04,07,8.20
2014,05,30,04,08,8.20
2014,05,30,04,09,8.20
2014,05,30,04,10,8.20
2014,05,30,04,11,8.20
2014,05,30,04,12,8.20
2014,05,30,04,13,8.20
2014,05,30,04,14,8.20
2014,05,30,04,15,8.20
2014,05,30,04,16,8.20
2014,05,30,04,17,8.20
2014,05,30,04,18,8.20
2014,05,30,04,19,8.20
2014,05,30,04,20,8.20
2014,05,30,04,21,8.20
2014,05,30,04,22,8.10
2014,05,30,04,23,8.10
2014,05,30,04,24,8.10
2014,05,30,04,25,8.10
2014,05,30,04,26,8.10
2014,05,30,04,27,8.10
2014,05,30,04,28,8.10
2014,05,30,04,29,8.10
2014,05,30,04,30,8.10
2014,05,30,04,31,8.00
2014,05,30,04,32,8.00
2014,05,30,04,33,7.90
2014,05,30,04,34,7.90
2014,05,30,04,35,7.90
2014,05,30,04,36,7.80
2014,05,30,04,37,7.80
2014,05,30,04,38,7.80
2014,05,30,04,39,7.80
2014,05,30,04,40,7.80
2014,05,30,04,41,7.80
2014,05,30,04,42,7.80
2014,05,30,04,43,7.80
2014,05,30,04,44,7.80
2014,05,30,04,45,7.80
2014,05,30,04,46,7.80
2014,05,30,04,47,7.80
2014,05,30,04,48,7.80
2014,05,30,04,49,7.80
2014,05,30,04,50,7.80
2014,05,30,04,51,7.80
2014,05,30,04,52,7.80
2014,05,30,04,53,7.90
2014,05,30,04,54,7.90
2014,05,30,04,55,7.90
2014,05,30,04,56,7.90
2014,05,30,04,57,8.00
2014,05,30,04,58,8.00
2014,05,30,04,59,8.10
2014,05,30,05,00,8.20
2014,05,30,05,01,8.20
2014,05,30,05,02,8.30
2014,05,30,05,03,8.40
2014,05,30,05,04,8.40
2014,05,30,05,05,8.30
2014,05,30,05,06,8.30
2014,05,30,05,07,8.30
2014,05,30,05,08,8.20
2014,05,30,05,09,8.20
2014,05,30,05,10,8.10
2014,05,30,05,11,8.00
2014,05,30,05,12,8.00
2014,05,30,05,13,8.00
2014,05,30,05,14,8.10
2014,05,30,05,15,8.10
2014,05,30,05,16,8.10
2014,05,30,05,17,8.10
2014,05,30,05,18,8.10
2014,05,30,05,19,8.10
2014,05,30,05,20,8.10
2014,05,30,05,21,8.10
2014,05,30,05,22,8.20
2014,05,30,05,23,8.30
2014,05,30,05,24,8.40
2014,05,30,05,25,8.40
2014,05,30,05,26,8.50
2014,05,30,05,27,8.50
2014,05,30,05,28,8.60
2014,05,30,05,29,8.70
2014,05,30,05,30,8.80
2014,05,30,05,31,8.90
2014,05,30,05,32,8.80
2014,05,30,05,33,8.80
2014,05,30,05,34,8.70
2014,05,30,05,35,8.60
2014,05,30,05,36,8.60
2014,05,30,05,37,8.60
2014,05,30,05,38,8.50
2014,05,30,05,39,8.50
2014,05,30,05,40,8.40
2014,05,30,05,41,8.30
2014,05,30,05,42,8.30
2014,05,30,05,43,8.20
2014,05,30,05,44,8.20
2014,05,30,05,45,8.20
2014,05,30,05,46,8.20
2014,05,30,05,47,8.20
2014,05,30,05,48,8.10
2014,05,30,05,49,8.10
2014,05,30,05,50,8.20
2014,05,30,05,51,8.20
2014,05,30,05,52,8.20
2014,05,30,05,53,8.20
2014,05,30,05,54,8.20
2014,05,30,05,55,8.30
2014,05,30,05,56,8.30
2014,05,30,05,57,8.20
2014,05,30,05,58,8.30
2014,05,30,05,59,8.20
2014,05,30,06,00,8.20
2014,05,30,06,01,8.20
2014,05,30,06,02,8.20
2014,05,30,06,03,8.20
2014,05,30,06,04,8.30
2014,05,30,06,05,8.30
2014,05,30,06,06,8.30
2014,05,30,06,07,8.40
2014,05,30,06,08,8.40
2014,05,30,06,09,8.40
2014,05,30,06,10,8.40
2014,05,30,06,11,8.40
2014,05,30,06,12,8.40
2014,05,30,06,13,8.40
2014,05,30,06,14,8.40
2014,05,30,06,15,8.50
2014,05,30,06,16,8.50
2014,05,30,06,17,8.50
2014,05,30,06,18,8.50
2014,05,30,06,19,8.50
2014,05,30,06,20,8.50
2014,05,30,06,21,8.50
2014,05,30,06,22,8.50
2014,05,30,06,23,8.50
2014,05,30,06,24,8.50
2014,05,30,06,25,8.60
2014,05,30,06,26,8.60
2014,05,30,06,27,8.60
2014,05,30,06,28,8.70
2014,05,30,06,29,8.70
2014,05,30,06,30,8.70
2014,05,30,06,31,8.70
2014,05,30,06,32,8.80
2014,05,30,06,33,8.80
2014,05,30,06,34,8.80
2014,05,30,06,35,8.80
2014,05,30,06,36,8.80
2014,05,30,06,37,8.80
2014,05,30,06,38,8.80
2014,05,30,06,39,8.80
2014,05,30,06,40,8.80
2014,05,30,06,41,8.80
2014,05,30,06,42,8.80
2014,05,30,06,43,8.90
2014,05,30,06,44,8.90
2014,05,30,06,45,8.90
2014,05,30,06,46,8.90
2014,05,30,06,47,9.00
2014,05,30,06,48,9.00
2014,05,30,06,49,9.10
2014,05,30,06,50,9.20
2014,05,30,06,51,9.30
2014,05,30,06,52,9.40
2014,05,30,06,53,9.40
2014,05,30,06,54,9.50
2014,05,30,06,55,9.60
2014,05,30,06,56,9.60
2014,05,30,06,57,9.60
2014,05,30,06,58,9.70
2014,05,30,06,59,9.70
2014,05,30,07,00,9.80
2014,05,30,07,01,9.80
2014,05,30,07,02,9.90
2014,05,30,07,03,9.90
2014,05,30,07,04,10.00
2014,05,30,07,05,10.10
2014,05,30,07,06,10.10
2014,05,30,07,07,10.20
2014,05,30,07,08,10.20
2014,05,30,07,09,10.20
2014,05,30,07,10,10.30
2014,05,30,07,11,10.30
2014,05,30,07,12,10.30
2014,05,30,07,13,10.30
2014,05,30,07,14,10.40
2014,05,30,07,15,10.40
2014,05,30,07,16,10.40
2014,05,30,07,17,10.40
2014,05,30,07,18,10.50
2014,05,30,07,19,10.50
2014,05,30,07,20,10.50
2014,05,30,07,21,10.60
2014,05,30,07,22,10.60
2014,05,30,07,23,10.60
2014,05,30,07,24,10.70
2014,05,30,07,25,10.70
2014,05,30,07,26,10.70
2014,05,30,07,27,10.80
2014,05,30,07,28,10.80
2014,05,30,07,29,10.80
2014,05,30,07,30,10.80
2014,05,30,07,31,10.90
2014,05,30,07,32,10.90
2014,05,30,07,33,10.90
2014,05,30,07,34,10.90
2014,05,30,07,35,11.00
2014,05,30,07,36,11.00
2014,05,30,07,37,11.00
2014,05,30,07,38,11.00
2014,05,30,07,39,11.10
2014,05,30,07,40,11.10
2014,05,30,07,41,11.10
2014,05,30,07,42,11.10
2014,05,30,07,43,11.10
2014,05,30,07,44,11.10
2014,05,30,07,45,11.10
2014,05,30,07,46,11.10
2014,05,30,07,47,11.20
2014,05,30,07,48,11.20
2014,05,30,07,49,11.20
2014,05,30,07,50,11.20
2014,05,30,07,51,11.20
2014,05,30,07,52,11.20
2014,05,30,07,53,11.30
2014,05,30,07,54,11.30
2014,05,30,07,55,11.30
2014,05,30,07,56,11.30
2014,05,30,07,57,11.30
2014,05,30,07,58,11.40
2014,05,30,07,59,11.40
2014,05,30,08,00,11.40
2014,05,30,08,01,11.50
2014,05,30,08,02,11.50
2014,05,30,08,03,11.60
2014,05,30,08,04,11.60
2014,05,30,08,05,11.70
2014,05,30,08,06,11.70
2014,05,30,08,07,11.70
2014,05,30,08,08,11.80
2014,05,30,08,09,11.80
2014,05,30,08,10,11.90
2014,05,30,08,11,11.90
2014,05,30,08,12,12.00
2014,05,30,08,13,12.10
2014,05,30,08,14,12.20
2014,05,30,08,15,12.30
2014,05,30,08,16,12.30
2014,05,30,08,17,12.40
2014,05,30,08,18,12.50
2014,05,30,08,19,12.60
2014,05,30,08,20,12.60
2014,05,30,08,21,12.70
2014,05,30,08,22,12.80
2014,05,30,08,23,12.80
2014,05,30,08,24,12.90
2014,05,30,08,25,12.90
2014,05,30,08,26,13.00
2014,05,30,08,27,13.00
2014,05,30,08,28,13.10
2014,05,30,08,29,13.10
2014,05,30,08,30,13.20
2014,05,30,08,31,13.20
2014,05,30,08,32,13.20
2014,05,30,08,33,13.30
2014,05,30,08,34,13.30
2014,05,30,08,35,13.30
2014,05,30,08,36,13.40
2014,05,30,08,37,13.40
2014,05,30,08,38,13.40
2014,05,30,08,39,13.50
2014,05,30,08,40,13.60
2014,05,30,08,41,13.70
2014,05,30,08,42,13.80
2014,05,30,08,43,13.80
2014,05,30,08,44,14.00
2014,05,30,08,45,14.10
2014,05,30,08,46,14.20
2014,05,30,08,47,14.30
2014,05,30,08,48,14.40
2014,05,30,08,49,14.50
2014,05,30,08,50,14.60
2014,05,30,08,51,14.70
2014,05,30,08,52,14.70
2014,05,30,08,53,14.70
2014,05,30,08,54,14.70
2014,05,30,08,55,14.70
2014,05,30,08,56,14.70
2014,05,30,08,57,14.60
2014,05,30,08,58,14.50
2014,05,30,08,59,14.50
2014,05,30,09,00,14.40
2014,05,30,09,01,14.40
2014,05,30,09,02,14.40
2014,05,30,09,03,14.40
2014,05,30,09,04,14.40
2014,05,30,09,05,14.40
2014,05,30,09,06,14.40
2014,05,30,09,07,14.40
2014,05,30,09,08,14.40
2014,05,30,09,09,14.40
2014,05,30,09,10,14.40
2014,05,30,09,11,14.40
2014,05,30,09,12,14.40
2014,05,30,09,13,14.50
2014,05,30,09,14,14.50
2014,05,30,09,15,14.60
2014,05,30,09,16,14.60
2014,05,30,09,17,14.60
2014,05,30,09,18,14.70
2014,05,30,09,19,14.80
2014,05,30,09,20,14.80
2014,05,30,09,21,14.90
2014,05,30,09,22,15.00
2014,05,30,09,23,15.00
2014,05,30,09,24,15.00
2014,05,30,09,25,15.00
2014,05,30,09,26,15.00
2014,05,30,09,27,15.00
2014,05,30,09,28,15.00
2014,05,30,09,29,15.00
2014,05,30,09,30,15.10
2014,05,30,09,31,15.20
2014,05,30,09,32,15.30
2014,05,30,09,33,15.30
2014,05,30,09,34,15.30
2014,05,30,09,35,15.30
2014,05,30,09,36,15.20
2014,05,30,09,37,15.20
2014,05,30,09,38,15.10
2014,05,30,09,39,15.00
2014,05,30,09,40,15.00
2014,05,30,09,41,14.90
2014,05,30,09,42,14.80
2014,05,30,09,43,14.80
2014,05,30,09,44,14.80
2014,05,30,09,45,14.80
2014,05,30,09,46,14.80
2014,05,30,09,47,14.80
2014,05,30,09,48,14.80
2014,05,30,09,49,14.90
2014,05,30,09,50,14.90
2014,05,30,09,51,15.00
2014,05,30,09,52,15.00
2014,05,30,09,53,15.00
2014,05,30,09,54,15.00
2014,05,30,09,55,15.00
2014,05,30,09,56,15.10
2014,05,30,09,57,15.10
2014,05,30,09,58,15.00
2014,05,30,09,59,15.00
2014,05,30,10,00,15.00
2014,05,30,10,01,15.00
2014,05,30,10,02,15.00
2014,05,30,10,03,15.00
2014,05,30,10,04,15.00
2014,05,30,10,05,15.00
2014,05,30,10,06,15.10
2014,05,30,10,07,15.10
2014,05,30,10,08,15.10
2014,05,30,10,09,15.10
2014,05,30,10,10,15.20
2014,05,30,10,11,15.20
2014,05,30,10,12,15.30
2014,05,30,10,13,15.40
2014,05,30,10,14,15.40
2014,05,30,10,15,15.40
2014,05,30,10,16,15.40
2014,05,30,10,17,15.50
2014,05,30,10,18,15.50
2014,05,30,10,19,15.50
2014,05,30,10,20,15.40
2014,05,30,10,21,15.40
2014,05,30,10,22,15.50
2014,05,30,10,23,15.50
2014,05,30,10,24,15.60
2014,05,30,10,25,15.60
2014,05,30,10,26,15.60
2014,05,30,10,27,15.70
2014,05,30,10,28,15.70
2014,05,30,10,29,15.70
2014,05,30,10,30,15.70
2014,05,30,10,31,15.80
2014,05,30,10,32,15.80
2014,05,30,10,33,15.70
2014,05,30,10,34,15.70
2014,05,30,10,35,15.70
2014,05,30,10,36,15.70
2014,05,30,10,37,15.70
2014,05,30,10,38,15.60
2014,05,30,10,39,15.60
2014,05,30,10,40,15.60
2014,05,30,10,41,15.60
2014,05,30,10,42,15.60
2014,05,30,10,43,15.60
2014,05,30,10,44,15.60
2014,05,30,10,45,15.70
2014,05,30,10,46,15.70
2014,05,30,10,47,15.80
2014,05,30,10,48,15.80
2014,05,30,10,49,15.80
2014,05,30,10,50,15.80
2014,05,30,10,51,15.80
2014,05,30,10,52,15.80
2014,05,30,10,53,15.80
2014,05,30,10,54,15.80
2014,05,30,10,55,15.80
2014,05,30,10,56,15.80
2014,05,30,10,57,15.90
2014,05,30,10,58,15.90
2014,05,30,10,59,16.00
2014,05,30,11,00,16.10
2014,05,30,11,01,16.10
2014,05,30,11,02,16.10
2014,05,30,11,03,16.20
2014,05,30,11,04,16.30
2014,05,30,11,05,16.30
2014,05,30,11,06,16.20
2014,05,30,11,07,16.20
2014,05,30,11,08,16.20
2014,05,30,11,09,16.20
2014,05,30,11,10,16.20
2014,05,30,11,11,16.30
2014,05,30,11,12,16.30
2014,05,30,11,13,16.30
2014,05,30,11,14,16.30
2014,05,30,11,15,16.30
2014,05,30,11,16,16.30
2014,05,30,11,17,16.30
2014,05,30,11,18,16.30
2014,05,30,11,19,16.30
2014,05,30,11,20,16.20
2014,05,30,11,21,16.20
2014,05,30,11,22,16.20
2014,05,30,11,23,16.20
2014,05,30,11,24,16.20
2014,05,30,11,25,16.30
2014,05,30,11,26,16.30
2014,05,30,11,27,16.40
2014,05,30,11,28,16.50
2014,05,30,11,29,16.50
2014,05,30,11,30,16.60
2014,05,30,11,31,16.60
2014,05,30,11,32,16.60
2014,05,30,11,33,16.60
2014,05,30,11,34,16.60
2014,05,30,11,35,16.60
2014,05,30,11,36,16.60
2014,05,30,11,37,16.70
2014,05,30,11,38,16.70
2014,05,30,11,39,16.70
2014,05,30,11,40,16.70
2014,05,30,11,41,16.70
2014,05,30,11,42,16.70
2014,05,30,11,43,16.70
2014,05,30,11,44,16.70
2014,05,30,11,45,16.70
2014,05,30,11,46,16.80
2014,05,30,11,47,16.80
2014,05,30,11,48,16.80
2014,05,30,11,49,16.80
2014,05,30,11,50,16.80
2014,05,30,11,51,16.80
2014,05,30,11,52,16.90
2014,05,30,11,53,16.90
2014,05,30,11,54,16.90
2014,05,30,11,55,17.00
2014,05,30,11,56,17.00
2014,05,30,11,57,17.10
2014,05,30,11,58,17.20
2014,05,30,11,59,17.20
2014,05,30,12,00,17.30
2014,05,30,12,01,17.50
2014,05,30,12,02,17.60
2014,05,30,12,03,17.70
2014,05,30,12,04,17.80
2014,05,30,12,05,17.90
2014,05,30,12,06,17.90
2014,05,30,12,07,18.00
2014,05,30,12,08,17.90
2014,05,30,12,09,17.90
2014,05,30,12,10,17.90
2014,05,30,12,11,18.00
2014,05,30,12,12,18.00
2014,05,30,12,13,18.10
2014,05,30,12,14,18.20
2014,05,30,12,15,18.20
2014,05,30,12,16,18.20
2014,05,30,12,17,18.10
2014,05,30,12,18,18.10
2014,05,30,12,19,18.10
2014,05,30,12,20,18.10
2014,05,30,12,21,18.20
2014,05,30,12,22,18.10
2014,05,30,12,23,18.10
2014,05,30,12,24,18.10
2014,05,30,12,25,18.10
2014,05,30,12,26,18.20
2014,05,30,12,27,18.30
2014,05,30,12,28,18.40
2014,05,30,12,29,18.50
2014,05,30,12,30,18.60
2014,05,30,12,31,18.60
2014,05,30,12,32,18.60
2014,05,30,12,33,18.50
2014,05,30,12,34,18.40
2014,05,30,12,35,18.30
2014,05,30,12,36,18.20
2014,05,30,12,37,18.20
2014,05,30,12,38,18.20
2014,05,30,12,39,18.20
2014,05,30,12,40,18.30
2014,05,30,12,41,18.20
2014,05,30,12,42,18.20
2014,05,30,12,43,18.20
2014,05,30,12,44,18.20
2014,05,30,12,45,18.10
2014,05,30,12,46,18.00
2014,05,30,12,47,18.00
2014,05,30,12,48,18.00
2014,05,30,12,49,18.00
2014,05,30,12,50,17.90
2014,05,30,12,51,17.80
2014,05,30,12,52,17.70
2014,05,30,12,53,17.80
2014,05,30,12,54,17.70
2014,05,30,12,55,17.70
2014,05,30,12,56,17.70
2014,05,30,12,57,17.80
2014,05,30,12,58,17.80
2014,05,30,12,59,17.80
2014,05,30,13,00,17.80
2014,05,30,13,01,17.90
2014,05,30,13,02,17.90
2014,05,30,13,03,17.90
2014,05,30,13,04,17.80
2014,05,30,13,05,17.60
2014,05,30,13,06,17.60
2014,05,30,13,07,17.60
2014,05,30,13,08,17.80
2014,05,30,13,09,17.80
2014,05,30,13,10,17.90
2014,05,30,13,11,17.90
2014,05,30,13,12,17.80
2014,05,30,13,13,17.90
2014,05,30,13,14,17.80
2014,05,30,13,15,17.80
2014,05,30,13,16,17.80
2014,05,30,13,17,17.90
2014,05,30,13,18,18.00
2014,05,30,13,19,18.10
2014,05,30,13,20,18.20
2014,05,30,13,21,18.30
2014,05,30,13,22,18.30
2014,05,30,13,23,18.30
2014,05,30,13,24,18.40
2014,05,30,13,25,18.50
2014,05,30,13,26,18.60
2014,05,30,13,27,18.70
2014,05,30,13,28,18.90
2014,05,30,13,29,19.00
2014,05,30,13,30,19.20
2014,05,30,13,31,19.20
2014,05,30,13,32,19.30
2014,05,30,13,33,19.40
2014,05,30,13,34,19.40
2014,05,30,13,35,19.50
2014,05,30,13,36,19.60
2014,05,30,13,37,19.70
2014,05,30,13,38,19.90
2014,05,30,13,39,20.00
2014,05,30,13,40,20.00
2014,05,30,13,41,20.00
2014,05,30,13,42,20.10
2014,05,30,13,43,20.10
2014,05,30,13,44,20.10
2014,05,30,13,45,20.00
2014,05,30,13,46,20.10
2014,05,30,13,47,20.10
2014,05,30,13,48,20.10
2014,05,30,13,49,20.00
2014,05,30,13,50,19.90
2014,05,30,13,51,19.90
2014,05,30,13,52,20.00
2014,05,30,13,53,20.00
2014,05,30,13,54,20.00
2014,05,30,13,55,20.00
2014,05,30,13,56,20.10
2014,05,30,13,57,20.00
2014,05,30,13,58,19.80
2014,05,30,13,59,19.50
2014,05,30,14,00,19.20
2014,05,30,14,01,19.10
2014,05,30,14,02,19.00
2014,05,30,14,03,18.90
2014,05,30,14,04,18.90
2014,05,30,14,05,18.90
2014,05,30,14,06,18.90
2014,05,30,14,07,19.00
2014,05,30,14,08,19.00
2014,05,30,14,09,19.10
2014,05,30,14,10,19.10
2014,05,30,14,11,19.10
2014,05,30,14,12,19.20
2014,05,30,14,13,19.20
2014,05,30,14,14,19.30
2014,05,30,14,15,19.30
2014,05,30,14,16,19.20
2014,05,30,14,17,19.20
2014,05,30,14,18,19.00
2014,05,30,14,19,18.90
2014,05,30,14,20,18.80
2014,05,30,14,21,18.80
2014,05,30,14,22,18.80
2014,05,30,14,23,18.90
2014,05,30,14,24,19.00
2014,05,30,14,25,19.10
2014,05,30,14,26,19.10
2014,05,30,14,27,19.20
2014,05,30,14,28,19.20
2014,05,30,14,29,19.20
2014,05,30,14,30,19.30
2014,05,30,14,31,19.40
2014,05,30,14,32,19.50
2014,05,30,14,33,19.60
2014,05,30,14,34,19.70
2014,05,30,14,35,19.80
2014,05,30,14,36,19.90
2014,05,30,14,37,19.90
2014,05,30,14,38,19.70
2014,05,30,14,39,19.50
2014,05,30,14,40,19.50
2014,05,30,14,41,19.50
2014,05,30,14,42,19.50
2014,05,30,14,43,19.30
2014,05,30,14,44,19.30
2014,05,30,14,45,19.30
2014,05,30,14,46,19.30
2014,05,30,14,47,19.30
2014,05,30,14,48,19.30
2014,05,30,14,49,19.20
2014,05,30,14,50,19.30
2014,05,30,14,51,19.30
2014,05,30,14,52,19.30
2014,05,30,14,53,19.40
2014,05,30,14,54,19.40
2014,05,30,14,55,19.40
2014,05,30,14,56,19.50
2014,05,30,14,57,19.70
2014,05,30,14,58,19.80
2014,05,30,14,59,19.90
2014,05,30,15,00,20.10
2014,05,30,15,01,20.20
2014,05,30,15,02,20.30
2014,05,30,15,03,20.50
2014,05,30,15,04,20.50
2014,05,30,15,05,20.60
2014,05,30,15,06,20.60
2014,05,30,15,07,20.60
2014,05,30,15,08,20.50
2014,05,30,15,09,20.50
2014,05,30,15,10,20.40
2014,05,30,15,11,20.40
2014,05,30,15,12,20.40
2014,05,30,15,13,20.40
2014,05,30,15,14,20.50
2014,05,30,15,15,20.60
2014,05,30,15,16,20.80
2014,05,30,15,17,20.80
2014,05,30,15,18,20.90
2014,05,30,15,19,20.90
2014,05,30,15,20,21.00
2014,05,30,15,21,21.00
2014,05,30,15,22,20.90
2014,05,30,15,23,20.70
2014,05,30,15,24,20.50
2014,05,30,15,25,20.40
2014,05,30,15,26,20.30
2014,05,30,15,27,20.30
2014,05,30,15,28,20.30
2014,05,30,15,29,20.40
2014,05,30,15,30,20.50
2014,05,30,15,31,20.50
2014,05,30,15,32,20.60
2014,05,30,15,33,20.60
2014,05,30,15,34,20.60
2014,05,30,15,35,20.60
2014,05,30,15,36,20.60
2014,05,30,15,37,20.50
2014,05,30,15,38,20.50
2014,05,30,15,39,20.50
2014,05,30,15,40,20.40
2014,05,30,15,41,20.30
2014,05,30,15,42,20.40
2014,05,30,15,43,20.50
2014,05,30,15,44,20.60
2014,05,30,15,45,20.60
2014,05,30,15,46,20.70
2014,05,30,15,47,20.80
2014,05,30,15,48,20.80
2014,05,30,15,49,20.80
2014,05,30,15,50,20.80
2014,05,30,15,51,20.80
2014,05,30,15,52,20.80
2014,05,30,15,53,20.80
2014,05,30,15,54,20.90
2014,05,30,15,55,20.90
2014,05,30,15,56,20.90
2014,05,30,15,57,20.90
2014,05,30,15,58,20.90
2014,05,30,15,59,20.90
2014,05,30,16,00,20.90
2014,05,30,16,01,20.80
2014,05,30,16,02,20.90
2014,05,30,16,03,20.80
2014,05,30,16,04,20.70
2014,05,30,16,05,20.70
2014,05,30,16,06,20.70
2014,05,30,16,07,20.70
2014,05,30,16,08,20.70
2014,05,30,16,09,20.80
2014,05,30,16,10,20.80
2014,05,30,16,11,20.90
2014,05,30,16,12,21.00
2014,05,30,16,13,21.10
2014,05,30,16,14,21.30
2014,05,30,16,15,21.40
2014,05,30,16,16,21.50
2014,05,30,16,17,21.60
2014,05,30,16,18,21.80
2014,05,30,16,19,21.90
2014,05,30,16,20,21.90
2014,05,30,16,21,21.90
2014,05,30,16,22,21.90
2014,05,30,16,23,21.90
2014,05,30,16,24,21.80
2014,05,30,16,25,21.80
2014,05,30,16,26,21.80
2014,05,30,16,27,21.80
2014,05,30,16,28,21.80
2014,05,30,16,29,21.80
2014,05,30,16,30,21.90
2014,05,30,16,31,22.00
2014,05,30,16,32,22.00
2014,05,30,16,33,22.00
2014,05,30,16,34,22.00
2014,05,30,16,35,22.10
2014,05,30,16,36,22.00
2014,05,30,16,37,22.00
2014,05,30,16,38,21.90
2014,05,30,16,39,21.70
2014,05,30,16,40,21.50
2014,05,30,16,41,21.40
2014,05,30,16,42,21.20
2014,05,30,16,43,21.10
2014,05,30,16,44,21.20
2014,05,30,16,45,21.20
2014,05,30,16,46,21.30
2014,05,30,16,47,21.40
2014,05,30,16,48,21.50
2014,05,30,16,49,21.60
2014,05,30,16,50,21.80
2014,05,30,16,51,21.80
2014,05,30,16,52,21.80
2014,05,30,16,53,21.90
2014,05,30,16,54,22.00
2014,05,30,16,55,22.00
2014,05,30,16,56,22.10
2014,05,30,16,57,22.20
2014,05,30,16,58,22.20
2014,05,30,16,59,22.30
2014,05,30,17,00,22.30
2014,05,30,17,01,22.30
2014,05,30,17,02,22.30
2014,05,30,17,03,22.40
2014,05,30,17,04,22.30
2014,05,30,17,05,22.20
2014,05,30,17,06,22.10
2014,05,30,17,07,22.00
2014,05,30,17,08,22.00
2014,05,30,17,09,21.90
2014,05,30,17,10,21.80
2014,05,30,17,11,21.70
2014,05,30,17,12,21.70
2014,05,30,17,13,21.60
2014,05,30,17,14,21.40
2014,05,30,17,15,21.40
2014,05,30,17,16,21.40
2014,05,30,17,17,21.30
2014,05,30,17,18,21.20
2014,05,30,17,19,21.20
2014,05,30,17,20,21.20
2014,05,30,17,21,21.30
2014,05,30,17,22,21.30
2014,05,30,17,23,21.30
2014,05,30,17,24,21.20
2014,05,30,17,25,21.20
2014,05,30,17,26,21.20
2014,05,30,17,27,21.30
2014,05,30,17,28,21.40
2014,05,30,17,29,21.40
2014,05,30,17,30,21.50
2014,05,30,17,31,21.40
2014,05,30,17,32,21.40
2014,05,30,17,33,21.20
2014,05,30,17,34,21.00
2014,05,30,17,35,20.90
2014,05,30,17,36,20.90